�������l�o���
Date,Time,MP-1(��Sv/h),MP-2(��Sv/h),MP-3(��Sv/h),MP-4(��Sv/h),MP-5(��Sv/h),MP-6(��Sv/h),MP-7(��Sv/h),MP-8(��Sv/h),����,����(m/s),���J
2016/09/29,00:00,1.113,1.842,1.332,2.027,1.410,0.597,1.055,0.974,�k�k��,3.3,�L
2016/09/29,00:10,1.114,1.840,1.333,2.032,1.408,0.598,1.051,0.974,�k�k��,2.9,�L
2016/09/29,00:20,1.113,1.843,1.329,2.028,1.408,0.597,1.051,0.976,�k��,2.3,�L
2016/09/29,00:30,1.113,1.839,1.334,2.027,1.408,0.597,1.052,0.976,�k�k��,3.3,��
2016/09/29,00:40,1.113,1.843,1.332,2.029,1.410,0.596,1.051,0.973,�k�k��,4.1,��
2016/09/29,00:50,1.115,1.839,1.331,2.026,1.409,0.596,1.052,0.974,�k�k��,4.4,�L
2016/09/29,01:00,1.112,1.838,1.330,2.030,1.409,0.599,1.051,0.975,�k�k��,3.4,��
2016/09/29,01:10,1.114,1.837,1.332,2.025,1.408,0.597,1.050,0.975,�k�k��,3.8,��
2016/09/29,01:20,1.113,1.842,1.331,2.032,1.408,0.599,1.054,0.976,�k�k��,4.4,��
2016/09/29,01:30,1.112,1.839,1.332,2.027,1.410,0.596,1.052,0.976,�k�k��,2.8,��
2016/09/29,01:40,1.115,1.837,1.331,2.028,1.409,0.598,1.050,0.976,�k�k��,2.1,��
2016/09/29,01:50,1.113,1.838,1.334,2.031,1.409,0.598,1.050,0.974,�k�k��,2.5,��
2016/09/29,02:00,1.113,1.844,1.332,2.031,1.408,0.597,1.050,0.973,�k��,1.7,��
2016/09/29,02:10,1.112,1.839,1.330,2.026,1.409,0.597,1.051,0.974,�k��,2.0,�L
2016/09/29,02:20,1.113,1.836,1.332,2.026,1.406,0.596,1.052,0.973,�k�k��,2.5,�L
2016/09/29,02:30,1.113,1.837,1.327,2.025,1.408,0.598,1.052,0.974,�k�k��,2.6,��
2016/09/29,02:40,1.113,1.836,1.330,2.025,1.408,0.597,1.050,0.975,�k�k��,2.9,��
2016/09/29,02:50,1.112,1.838,1.326,2.027,1.408,0.598,1.050,0.973,�k�k��,2.7,��
2016/09/29,03:00,1.110,1.836,1.329,2.027,1.407,0.598,1.051,0.976,�k�k��,2.3,�L
2016/09/29,03:10,1.111,1.836,1.328,2.024,1.406,0.597,1.049,0.975,�k�k��,2.2,�L
2016/09/29,03:20,1.109,1.834,1.329,2.023,1.406,0.596,1.048,0.973,�k��,3.2,�L
2016/09/29,03:30,1.107,1.831,1.326,2.021,1.403,0.596,1.046,0.974,�k�k��,3.4,�L
2016/09/29,03:40,1.106,1.826,1.324,2.017,1.400,0.598,1.046,0.971,�k�k��,2.9,�L
2016/09/29,03:50,1.104,1.815,1.318,2.012,1.393,0.598,1.040,0.969,�k,2.0,�L
2016/09/29,04:00,1.093,1.802,1.310,1.999,1.385,0.594,1.040,0.965,-,CALM,�L
2016/09/29,04:10,1.087,1.790,1.305,1.987,1.373,0.590,1.039,0.965,-,CALM,�L
2016/09/29,04:20,1.084,1.785,1.303,1.975,1.362,0.587,1.037,0.961,�k�k��,5.2,�L
2016/09/29,04:30,1.082,1.780,1.302,1.972,1.364,0.589,1.035,0.963,��,1.0,�L
2016/09/29,04:40,1.084,1.785,1.302,1.973,1.367,0.587,1.034,0.962,-,CALM,�L
2016/09/29,04:50,1.085,1.787,1.305,1.976,1.367,0.587,1.034,0.961,�k��,1.4,�L
2016/09/29,05:00,1.084,1.780,1.303,1.971,1.361,0.589,1.034,0.961,�k��,1.0,�L
2016/09/29,05:10,1.077,1.769,1.297,1.963,1.353,0.584,1.029,0.959,���쓌,1.9,�L
2016/09/29,05:20,1.077,1.776,1.298,1.956,1.351,0.585,1.030,0.959,���쐼,0.6,�L
2016/09/29,05:30,1.078,1.776,1.295,1.958,1.349,0.584,1.028,0.958,�쓌,4.6,�L
2016/09/29,05:40,1.075,1.769,1.290,1.958,1.348,0.584,1.028,0.956,��,0.9,�L
2016/09/29,05:50,1.075,1.768,1.294,1.958,1.348,0.586,1.029,0.958,�k,1.2,�L
2016/09/29,06:00,1.077,1.777,1.298,1.965,1.354,0.588,1.031,0.958,�k�k��,1.9,�L
2016/09/29,06:10,1.074,1.762,1.288,1.955,1.339,0.585,1.027,0.958,�k,2.5,�L
2016/09/29,06:20,1.069,1.760,1.286,1.948,1.345,0.587,1.028,0.957,�k,1.6,�L
2016/09/29,06:30,1.068,1.760,1.285,1.956,1.343,0.589,1.029,0.960,�k�k��,3.2,�L
2016/09/29,06:40,1.065,1.751,1.280,1.951,1.337,0.585,1.027,0.956,��,4.1,�L
2016/09/29,06:50,1.065,1.755,1.281,1.950,1.335,0.584,1.022,0.956,�k�k��,4.6,�L
2016/09/29,07:00,1.069,1.761,1.283,1.953,1.339,0.584,1.023,0.954,�k�k��,3.8,�L
2016/09/29,07:10,1.074,1.772,1.286,1.955,1.340,0.585,1.027,0.956,�k��,3.8,�L
2016/09/29,07:20,1.077,1.773,1.289,1.960,1.343,0.586,1.025,0.956,�k�k��,4.2,�L
2016/09/29,07:30,1.078,1.776,1.284,1.962,1.341,0.587,1.028,0.955,�k��,3.1,�L
2016/09/29,07:40,1.078,1.773,1.288,1.961,1.340,0.586,1.027,0.955,�k��,3.8,�L
2016/09/29,07:50,1.077,1.777,1.290,1.966,1.340,0.587,1.026,0.958,�k�k��,4.1,�L
2016/09/29,08:00,1.078,1.778,1.289,1.962,1.344,0.585,1.028,0.956,�k�k��,3.1,��
2016/09/29,08:10,1.080,1.781,1.290,1.966,1.339,0.585,1.029,0.958,�k�k��,2.5,�L
2016/09/29,08:20,1.076,1.777,1.291,1.970,1.342,0.586,1.028,0.957,�k��,2.3,�L
2016/09/29,08:30,1.076,1.777,1.291,1.966,1.341,0.586,1.030,0.957,�k�k��,2.4,�L
2016/09/29,08:40,1.079,1.782,1.290,1.967,1.343,0.586,1.030,0.958,�k�k��,2.8,�L
2016/09/29,08:50,1.080,1.779,1.293,1.966,1.344,0.587,1.028,0.956,�k,1.4,�L
2016/09/29,09:00,1.078,1.778,1.289,1.963,1.339,0.586,1.028,0.957,�k,2.5,�L
2016/09/29,09:10,1.078,1.777,1.288,1.964,1.339,0.585,1.026,0.956,�k�k��,2.6,�L
2016/09/29,09:20,1.079,1.782,1.291,1.964,1.342,0.585,1.029,0.957,�k�k��,3.0,�L
2016/09/29,09:30,1.080,1.782,1.290,1.966,1.343,0.588,1.030,0.956,�k��,2.4,��
2016/09/29,09:40,1.079,1.780,1.291,1.968,1.342,0.585,1.028,0.956,�k,2.7,�L
2016/09/29,09:50,1.080,1.782,1.294,1.970,1.345,0.586,1.029,0.958,�k,2.4,�L
2016/09/29,10:00,1.083,1.779,1.294,1.973,1.346,0.585,1.030,0.958,�k,2.5,��
2016/09/29,10:10,1.084,1.783,1.295,1.973,1.346,0.587,1.030,0.959,�k�k��,3.0,��
2016/09/29,10:20,1.085,1.783,1.294,1.974,1.347,0.586,1.030,0.960,�k��,2.6,��
2016/09/29,10:30,1.084,1.784,1.295,1.976,1.347,0.585,1.032,0.957,�k�k��,2.7,��
2016/09/29,10:40,1.087,1.784,1.297,1.979,1.349,0.586,1.030,0.958,�k��,2.8,��
2016/09/29,10:50,1.086,1.785,1.298,1.978,1.351,0.587,1.032,0.958,�k��,3.5,��
2016/09/29,11:00,1.087,1.796,1.298,1.977,1.353,0.587,1.031,0.959,�k��,3.4,��
2016/09/29,11:10,1.088,1.793,1.298,1.982,1.352,0.587,1.031,0.959,�k�k��,3.0,��
2016/09/29,11:20,1.088,1.794,1.299,1.981,1.354,0.587,1.032,0.958,�k��,4.1,�L
2016/09/29,11:30,1.087,1.791,1.299,1.983,1.353,0.586,1.033,0.958,�k�k��,4.1,�L
2016/09/29,11:40,1.088,1.792,1.298,1.979,1.354,0.587,1.034,0.960,�k�k��,3.5,�L
2016/09/29,11:50,1.086,1.787,1.296,1.979,1.355,0.587,1.034,0.960,�k�k��,4.5,�L
2016/09/29,12:00,1.083,1.775,1.291,1.969,1.349,0.585,1.031,0.958,�k,6.1,�L
2016/09/29,12:10,1.080,1.779,1.295,1.967,1.347,0.588,1.029,0.956,�k,6.9,�L
2016/09/29,12:20,1.082,1.780,1.293,1.965,1.345,0.587,1.029,0.959,�k,8.3,�L
2016/09/29,12:30,1.076,1.763,1.285,1.952,1.337,0.586,1.027,0.956,�k,9.1,�L
2016/09/29,12:40,1.077,1.769,1.290,1.952,1.340,0.587,1.027,0.956,�k,9.4,�L
2016/09/29,12:50,1.079,1.779,1.291,1.959,1.345,0.590,1.029,0.957,�k,7.7,��
2016/09/29,13:00,1.082,1.780,1.293,1.963,1.343,0.588,1.031,0.955,�k�k��,6.9,�L
2016/09/29,13:10,1.079,1.776,1.292,1.959,1.336,0.590,1.030,0.958,�k�k��,7.1,�L
2016/09/29,13:20,1.076,1.772,1.288,1.951,1.335,0.588,1.028,0.956,�k,6.4,�L
2016/09/29,13:30,1.077,1.770,1.289,1.951,1.337,0.587,1.027,0.955,�k,5.3,�L
2016/09/29,13:40,1.079,1.773,1.288,1.954,1.340,0.587,1.028,0.956,�k,6.3,��
2016/09/29,13:50,1.078,1.779,1.290,1.956,1.342,0.587,1.029,0.956,�k,5.3,��
2016/09/29,14:00,1.081,1.782,1.291,1.963,1.342,0.586,1.030,0.955,�k,5.5,��
2016/09/29,14:10,1.080,1.789,1.293,1.966,1.344,0.584,1.031,0.957,�k,6.0,��
2016/09/29,14:20,1.082,1.787,1.293,1.971,1.346,0.587,1.031,0.958,�k,3.9,��
2016/09/29,14:30,1.081,1.789,1.294,1.972,1.344,0.587,1.030,0.958,�k,4.4,��
2016/09/29,14:40,1.084,1.791,1.294,1.972,1.346,0.586,1.033,0.958,�k,4.7,��
2016/09/29,14:50,1.084,1.788,1.293,1.969,1.347,0.585,1.032,0.959,�k,3.8,��
2016/09/29,15:00,1.084,1.791,1.293,1.976,1.346,0.585,1.031,0.958,�k,4.4,��
2016/09/29,15:10,1.086,1.791,1.295,1.971,1.349,0.585,1.032,0.958,�k�k��,3.3,��
2016/09/29,15:20,1.087,1.790,1.293,1.974,1.348,0.584,1.031,0.956,�k,3.8,��
2016/09/29,15:30,1.085,1.793,1.295,1.979,1.348,0.583,1.031,0.958,�k�k��,3.6,��
2016/09/29,15:40,1.086,1.795,1.294,1.977,1.346,0.584,1.031,0.961,�k,3.4,��
2016/09/29,15:50,1.084,1.796,1.297,1.980,1.352,0.584,1.033,0.960,�k,3.6,��
2016/09/29,16:00,1.086,1.798,1.299,1.977,1.351,0.586,1.034,0.957,�k�k��,4.1,��
2016/09/29,16:10,1.086,1.794,1.297,1.979,1.351,0.584,1.034,0.959,�k�k��,3.5,��
2016/09/29,16:20,1.085,1.797,1.298,1.981,1.354,0.586,1.032,0.961,�k�k��,3.9,��
2016/09/29,16:30,1.088,1.802,1.300,1.984,1.355,0.584,1.033,0.962,�k,4.4,��
2016/09/29,16:40,1.089,1.802,1.300,1.984,1.357,0.586,1.033,0.960,�k,5.2,��
2016/09/29,16:50,1.091,1.802,1.302,1.986,1.358,0.585,1.033,0.961,�k,4.4,��
2016/09/29,17:00,1.091,1.803,1.301,1.982,1.358,0.586,1.034,0.962,�k,4.4,��
2016/09/29,17:10,1.092,1.803,1.303,1.983,1.357,0.585,1.036,0.961,�k,3.5,��
2016/09/29,17:20,1.091,1.808,1.302,1.982,1.360,0.586,1.036,0.960,�k,4.1,��
2016/09/29,17:30,1.091,1.804,1.301,1.988,1.361,0.587,1.034,0.960,�k,4.9,��
2016/09/29,17:40,1.093,1.807,1.304,1.987,1.359,0.586,1.036,0.963,�k�k��,4.1,��
2016/09/29,17:50,1.092,1.808,1.304,1.984,1.362,0.587,1.035,0.962,�k�k��,5.3,��
2016/09/29,18:00,1.089,1.808,1.303,1.985,1.363,0.586,1.036,0.962,�k�k��,6.4,��
2016/09/29,18:10,1.092,1.807,1.306,1.988,1.364,0.589,1.037,0.963,�k�k��,6.0,��
2016/09/29,18:20,1.090,1.809,1.302,1.990,1.364,0.586,1.037,0.964,�k�k��,8.0,��
2016/09/29,18:30,1.093,1.811,1.304,1.991,1.363,0.585,1.035,0.961,�k�k��,8.8,��
2016/09/29,18:40,1.093,1.813,1.306,1.991,1.365,0.587,1.037,0.963,�k�k��,8.0,��
2016/09/29,18:50,1.092,1.813,1.306,1.991,1.366,0.587,1.038,0.964,�k�k��,9.1,��
2016/09/29,19:00,1.092,1.812,1.306,1.990,1.365,0.588,1.035,0.963,�k�k��,6.9,��
2016/09/29,19:10,1.093,1.815,1.303,1.989,1.366,0.585,1.034,0.965,�k�k��,6.3,��
2016/09/29,19:20,1.095,1.813,1.306,1.992,1.363,0.586,1.036,0.962,�k�k��,3.8,��
2016/09/29,19:30,1.092,1.814,1.306,1.992,1.365,0.588,1.035,0.964,�k��,2.1,��
2016/09/29,19:40,1.094,1.814,1.305,1.992,1.367,0.586,1.038,0.965,�k�k��,3.0,��
2016/09/29,19:50,1.091,1.813,1.306,1.987,1.366,0.585,1.038,0.964,�k,3.4,��
2016/09/29,20:00,1.092,1.814,1.305,1.992,1.369,0.590,1.038,0.965,�k�k��,4.9,��
2016/09/29,20:10,1.092,1.815,1.308,1.992,1.367,0.587,1.039,0.964,�k�k��,3.8,��
2016/09/29,20:20,1.094,1.812,1.307,1.991,1.368,0.587,1.040,0.964,�k�k��,2.5,��
2016/09/29,20:30,1.094,1.813,1.307,1.994,1.369,0.589,1.040,0.966,�k�k��,4.5,��
2016/09/29,20:40,1.091,1.814,1.304,1.994,1.371,0.588,1.039,0.966,�k�k��,3.3,��
2016/09/29,20:50,1.092,1.817,1.307,1.994,1.368,0.587,1.041,0.965,�k�k��,6.1,��
2016/09/29,21:00,1.095,1.817,1.308,1.991,1.370,0.586,1.040,0.966,�k��,8.2,��
2016/09/29,21:10,1.092,1.814,1.307,1.998,1.371,0.588,1.038,0.964,�k��,8.2,��
2016/09/29,21:20,1.094,1.816,1.307,1.994,1.374,0.587,1.039,0.964,�k�k��,7.7,��
2016/09/29,21:30,1.092,1.819,1.309,1.997,1.370,0.589,1.039,0.965,�k��,8.3,��
2016/09/29,21:40,1.094,1.816,1.309,1.997,1.372,0.586,1.042,0.964,�k��,8.8,��
2016/09/29,21:50,1.094,1.817,1.310,1.999,1.374,0.588,1.041,0.965,�k��,9.7,��
2016/09/29,22:00,1.093,1.818,1.311,1.998,1.375,0.588,1.041,0.964,�k��,10.7,��
2016/09/29,22:10,1.094,1.818,1.310,2.000,1.374,0.589,1.042,0.965,�k�k��,8.6,��
2016/09/29,22:20,1.093,1.821,1.308,2.000,1.372,0.588,1.040,0.964,�k��,8.0,��
2016/09/29,22:30,1.095,1.818,1.310,1.998,1.374,0.588,1.040,0.964,�k�k��,6.7,��
2016/09/29,22:40,1.094,1.817,1.309,2.001,1.374,0.589,1.043,0.965,�k�k��,7.1,��
2016/09/29,22:50,1.096,1.822,1.311,1.999,1.376,0.588,1.040,0.965,�k�k��,7.7,��
2016/09/29,23:00,1.094,1.822,1.309,2.000,1.375,0.588,1.041,0.968,�k�k��,8.3,��
2016/09/29,23:10,1.094,1.819,1.311,2.000,1.373,0.588,1.042,0.965,�k�k��,6.4,��
2016/09/29,23:20,1.094,1.818,1.310,1.999,1.376,0.590,1.041,0.967,�k,6.0,��
2016/09/29,23:30,1.094,1.819,1.311,2.001,1.375,0.589,1.041,0.964,�k,8.0,��
2016/09/29,23:40,1.096,1.821,1.311,1.998,1.377,0.589,1.043,0.968,�k�k��,6.9,��
2016/09/29,23:50,1.095,1.820,1.311,2.003,1.375,0.588,1.042,0.968,�k,6.3,��
